Date String (YYYY-MM-DD hh:mm:ss) UTC,Instrument flags,Ambient pressure (hPa),Sample flow (lpm),Bypass flow (lpm),Sample temperature (°C),Ambient temperature (°C),ASC tube jacket temperature (°C),LED temperature (°C),Box temperature (°C),Sample RH (%),Span deviation,Mass concentration (μg/m³),Mass concentration (μg/m³),Mass concentration (μg/m³)
DateTimeUTC,F1_M11,P_M11,Q1_M11,Q2_M11,T1_M11,T2_M11,T3_M11,T4_M11,T5_M11,U1_M11,ZSPAN_M11,X0_M11,X2_M11,X1_M11
2022-03-04 18:00:00,,0818.0,5.00,0.00,26.2,25.5,00.0,35.2,28.0,08.8,0001.8,0010.57,0004.55,0003.86
2022-03-04 18:01:00,,0818.0,4.99,0.00,26.2,25.5,00.0,35.2,28.1,08.7,0000.0,0010.63,0004.39,0003.73
2022-03-04 18:02:00,,0818.1,5.00,0.00,26.2,25.5,00.0,35.2,28.1,08.8,0000.0,0010.72,0004.29,0003.62
2022-03-04 18:03:00,,0818.1,4.99,0.00,26.2,25.5,00.0,35.2,28.1,08.9,0000.0,0011.17,0004.19,0003.53
2022-03-04 18:04:00,,0818.0,5.00,0.00,26.2,25.6,00.0,35.2,28.1,09.2,0000.0,0010.97,0004.08,0003.44
2022-03-04 18:05:00,,0818.0,5.00,0.00,26.2,25.6,00.0,35.2,28.1,09.4,0000.0,0010.46,0003.98,0003.35
2022-03-04 18:06:00,,0818.0,5.00,0.00,26.2,25.6,00.0,35.2,28.1,08.7,0000.0,0010.07,0003.85,0003.26
2022-03-04 18:07:00,,0818.0,5.00,0.00,26.2,25.6,00.0,35.2,28.1,08.6,0000.0,0009.94,0003.77,0003.21
2022-03-04 18:08:00,,0818.0,5.00,0.00,26.3,25.6,00.0,35.2,28.2,08.8,0000.0,0009.83,0003.70,0003.17
2022-03-04 18:09:00,,0818.1,5.01,0.00,26.3,25.6,00.0,35.2,28.2,09.0,0000.0,0009.84,0003.71,0003.15
2022-03-04 18:10:00,,0818.0,4.99,0.00,26.3,25.6,00.0,35.2,28.2,08.9,0000.0,0009.35,0003.63,0003.11
2022-03-04 18:11:00,,0818.0,5.00,0.00,26.3,25.6,00.0,35.2,28.2,08.6,0000.0,0008.03,0003.57,0003.05
2022-03-04 18:12:00,,0818.1,5.00,0.00,26.3,25.6,00.0,35.2,28.2,08.4,0000.0,0007.53,0003.55,0003.02
2022-03-04 18:13:00,,0818.1,5.00,0.00,26.3,25.6,00.0,35.2,28.2,08.4,0000.0,0007.17,0003.51,0003.01
2022-03-04 18:14:00,,0818.1,5.00,0.00,26.3,25.6,00.0,35.2,28.2,08.2,0000.0,0006.52,0003.46,0002.96
2022-03-04 18:15:00,,0818.1,5.00,0.00,26.3,25.6,00.0,35.2,28.2,08.8,0000.0,0006.73,0003.45,0002.94
2022-03-04 18:16:00,,0818.0,4.99,0.00,26.3,25.6,00.0,35.2,28.1,09.2,0000.0,0007.29,0003.48,0002.97
2022-03-04 18:17:00,,0818.1,4.99,0.00,26.3,25.6,00.0,35.2,28.1,09.0,0000.0,0007.58,0003.52,0002.99
2022-03-04 18:18:00,,0818.0,5.00,0.00,26.3,25.6,00.0,35.2,28.1,08.6,0000.0,0008.08,0003.51,0002.97
2022-03-04 18:19:00,,0818.0,5.01,0.00,26.3,25.6,00.0,35.2,28.1,08.4,0000.0,0008.19,0003.51,0002.94
2022-03-04 18:20:00,,0818.1,5.00,0.00,26.3,25.7,00.0,35.3,28.1,08.6,0000.0,0008.22,0003.49,0002.91
2022-03-04 18:21:00,,0818.2,5.01,0.00,26.3,25.7,00.0,35.3,28.1,12.2,0000.0,0008.55,0003.67,0003.10
2022-03-04 18:22:00,,0818.1,5.00,0.00,26.3,25.7,00.0,35.3,28.1,12.8,0000.0,0009.11,0004.02,0003.41
2022-03-04 18:23:00,,0818.2,5.02,0.00,26.3,25.7,00.0,35.3,28.1,12.7,-000.1,0011.28,0004.36,0003.66
2022-03-04 18:24:00,,0818.2,5.00,0.00,26.3,25.6,00.0,35.3,28.1,10.9,-000.1,0012.31,0004.58,0003.84
2022-03-04 18:25:00,,0818.1,5.00,0.00,26.3,25.6,00.0,35.3,28.1,10.3,-001.4,0012.81,0004.79,0003.99
2022-03-04 18:26:00,,0818.1,5.00,0.00,26.3,25.6,00.0,35.3,28.1,09.0,-001.2,0012.84,0004.90,0004.03
2022-03-04 18:27:00,,0818.1,5.00,0.00,26.3,25.6,00.0,35.3,28.1,10.2,-001.3,0012.92,0004.95,0004.06
2022-03-04 18:28:00,,0818.0,5.00,0.00,26.3,25.6,00.0,35.3,28.2,10.8,-001.3,0014.50,0005.13,0004.17
2022-03-04 18:29:00,,0818.1,5.00,0.00,26.3,25.6,00.0,35.3,28.2,11.6,-001.7,0015.08,0005.30,0004.33
2022-03-04 18:30:00,,0818.0,5.00,0.00,26.3,25.7,00.0,35.3,28.2,11.8,-001.8,0016.92,0005.57,0004.56
2022-03-04 18:31:00,,0818.0,5.00,0.00,26.3,25.7,00.0,35.3,28.2,11.9,-001.6,0017.90,0005.83,0004.79
2022-03-04 18:32:00,,0818.1,5.00,0.00,26.3,25.7,00.0,35.3,28.2,11.0,-001.5,0018.94,0006.00,0004.92
2022-03-04 18:33:00,,0818.0,4.99,0.00,26.4,25.7,00.0,35.3,28.2,11.1,-000.8,0018.99,0005.85,0004.79
2022-03-04 18:34:00,,0818.0,5.00,0.00,26.4,25.7,00.0,35.3,28.2,09.1,-000.4,0017.55,0005.53,0004.54
2022-03-04 18:35:00,,0818.0,5.00,0.00,26.4,25.7,00.0,35.3,28.2,08.6,-000.6,0016.15,0005.23,0004.31
2022-03-04 18:36:00,,0818.0,5.00,0.00,26.4,25.7,00.0,35.3,28.2,08.4,0000.1,0016.55,0005.03,0004.14
2022-03-04 18:37:00,,0817.9,5.00,0.00,26.4,25.8,00.0,35.3,28.2,08.3,-000.1,0017.17,0004.92,0004.07
2022-03-04 18:38:00,,0817.9,5.00,0.00,26.4,25.7,00.0,35.3,28.2,08.4,0000.1,0017.31,0004.84,0004.00
2022-03-04 18:39:00,,0817.9,5.00,0.00,26.4,25.8,00.0,35.3,28.2,08.4,0000.5,0016.78,0004.64,0003.84
2022-03-04 18:40:00,,0817.8,5.01,0.00,26.4,25.8,00.0,35.4,28.2,08.5,0000.9,0016.43,0004.43,0003.66
2022-03-04 18:41:00,,0817.8,4.99,0.00,26.4,25.7,00.0,35.4,28.2,08.4,0000.8,0015.07,0004.12,0003.42
2022-03-04 18:42:00,,0817.8,4.99,0.00,26.4,25.7,00.0,35.4,28.2,08.4,0000.0,0013.94,0003.85,0003.19
2022-03-04 18:43:00,,0817.8,4.98,0.00,26.4,25.7,00.0,35.4,28.2,08.5,0000.0,0012.72,0003.58,0002.90
2022-03-04 18:44:00,,0817.8,5.01,0.00,26.5,25.7,00.0,35.4,28.2,08.7,0000.0,0012.07,0003.39,0002.60
2022-03-04 18:45:00,,0817.8,5.01,0.00,26.5,25.7,00.0,35.4,28.2,09.0,0000.0,0011.59,0003.31,0002.47
2022-03-04 18:46:00,,0817.8,5.00,0.00,26.5,25.8,00.0,35.4,28.2,08.9,0000.0,0011.66,0003.38,0002.47
2022-03-04 18:47:00,,0817.7,5.00,0.00,26.5,25.8,00.0,35.4,28.2,08.8,0000.0,0010.97,0003.35,0002.46
2022-03-04 18:48:00,,0817.8,4.99,0.00,26.5,25.8,00.0,35.4,28.3,08.6,0000.0,0010.34,0003.33,0002.46
2022-03-04 18:49:00,,0817.7,4.99,0.00,26.5,25.8,00.0,35.4,28.3,08.4,0000.0,0009.98,0003.30,0002.47
2022-03-04 18:50:00,,0817.7,5.01,0.00,26.5,25.8,00.0,35.4,28.3,08.5,0000.0,0008.99,0003.27,0002.48
2022-03-04 18:51:00,,0817.8,5.00,0.00,26.5,25.8,00.0,35.4,28.3,08.4,0000.0,0008.53,0003.28,0002.49
2022-03-04 18:52:00,,0817.7,5.00,0.00,26.5,25.8,00.0,35.5,28.3,08.6,0000.0,0008.09,0003.35,0002.50
2022-03-04 18:53:00,,0817.7,5.01,0.00,26.5,25.8,00.0,35.5,28.4,08.6,0000.0,0008.43,0003.36,0002.48
2022-03-04 18:54:00,,0817.7,5.00,0.00,26.6,25.8,00.0,35.5,28.4,08.4,0000.0,0008.80,0003.35,0002.47
2022-03-04 18:55:00,,0817.6,5.00,0.00,26.6,25.8,00.0,35.5,28.4,08.5,0000.0,0008.85,0003.37,0002.48
2022-03-04 18:56:00,,0817.6,4.98,0.00,26.6,25.8,00.0,35.5,28.3,08.5,0000.0,0008.81,0003.35,0002.49
2022-03-04 18:57:00,,0817.6,4.99,0.00,26.6,25.8,00.0,35.5,28.3,08.6,0000.0,0008.65,0003.30,0002.48
2022-03-04 18:58:00,,0817.6,5.01,0.00,26.6,25.8,00.0,35.5,28.3,08.5,0000.0,0008.26,0003.32,0002.48
2022-03-04 18:59:00,,0817.6,5.01,0.00,26.6,25.8,00.0,35.5,28.4,08.5,0000.0,0008.72,0003.34,0002.49
